Anniston, AL

8:38 AM CST on November 17, 2019 (GMT -0600)
Anniston Metro

Weather History for KANB - September, 2019

Change the Weather History Date:

Monday, September 2, 2019

  Actual Average Record
Temperature  
Mean Temperature 81 °F 78 °F  
Max Temperature 93 °F 88 °F 99 °F (1957)
Min Temperature 69 °F 67 °F 52 °F (1954)
Degree Days  
Heating Degree Days 0    
Month to date heating degree days 0  
Since 1 July heating degree days 0  
Cooling Degree Days 15    
Growing Degree Days 30 (Base 50)    
Moisture  
Dew Point 67 °F    
Average Humidity 68    
Maximum Humidity 97    
Minimum Humidity 38    
Precipitation  
Precipitation 0.00 in 0.10 in 1.54 in (2013)
Month to date precipitation T 0.20  
Year to date precipitation 39.17 35.12  
Sea Level Pressure  
Sea Level Pressure 30.02 in    
Wind  
Wind Speed 4 mph (NE)    
Max Wind Speed 14 mph    
Max Gust Speed 18 mph    
Visibility 10 miles    
Events      
T = Trace of Precipitation, MM = Missing Value Source: NWS Daily Summary

Daily Weather History Graph

Daily Weather History Graph

Search for Another Location

Airport or City:

Astronomy

Sep. 02, 2019 Rise Set
Actual Time 6:17 AM CDT 7:07 PM CDT
Civil Twilight 5:52 AM CDT 7:33 PM CDT
Nautical Twilight 5:22 AM CDT 8:03 PM CDT
Astronomical Twilight 4:51 AM CDT 8:33 PM CDT
Moon 9:49 AM CDT (9/2) 9:40 PM CDT (9/2)
Length of Visible Light 13h 40m
Length of Day
12h 49m
Waxing Crescent, 15% of the Moon is Illuminated
Sep 2
Waxing Crescent
Sep 5
First Quarter
Sep 13
Full
Sep 21
Last Quarter
Sep 28
New

Hourly Weather History & Observations

Time (CDT) Temp. Heat Index Dew Point Humidity Pressure Visibility Wind Dir Wind Speed Gust Speed Precip Events Conditions
12:53 AM 72.0 °F - 69.1 °F 91% 30.05 in 10.0 mi Calm Calm - N/A   Clear
1:53 AM 71.1 °F - 69.1 °F 93% 30.04 in 10.0 mi East 3.5 mph - N/A   Clear
2:53 AM 71.1 °F - 69.1 °F 93% 30.03 in 10.0 mi Calm Calm - N/A   Clear
3:53 AM 70.0 °F - 68.0 °F 93% 30.03 in 10.0 mi ENE 5.8 mph - N/A   Clear
4:53 AM 69.1 °F - 68.0 °F 96% 30.05 in 10.0 mi Calm Calm - N/A   Clear
5:53 AM 69.1 °F - 66.9 °F 93% 30.06 in 10.0 mi ENE 3.5 mph - N/A   Clear
6:53 AM 69.1 °F - 66.9 °F 93% 30.07 in 10.0 mi East 3.5 mph - N/A   Clear
7:53 AM 72.0 °F - 68.0 °F 87% 30.09 in 10.0 mi ENE 4.6 mph - N/A   Clear
8:53 AM 77.0 °F - 68.0 °F 74% 30.09 in 10.0 mi NE 8.1 mph - N/A   Clear
9:53 AM 81.0 °F 84.1 °F 69.1 °F 67% 30.09 in 10.0 mi ENE 6.9 mph - N/A   Clear
10:53 AM 84.9 °F 89.4 °F 70.0 °F 61% 30.08 in 10.0 mi NNE 5.8 mph - N/A   Clear
11:53 AM 88.0 °F 90.7 °F 66.9 °F 49% 30.05 in 10.0 mi Variable 5.8 mph - N/A   Partly Cloudy
12:53 PM 90.0 °F 92.4 °F 66.0 °F 45% 30.04 in 10.0 mi NNE 11.5 mph 17.3 mph N/A   Mostly Cloudy
1:53 PM 91.0 °F 93.0 °F 64.9 °F 42% 30.01 in 10.0 mi NNE 8.1 mph 17.3 mph N/A   Partly Cloudy
2:53 PM 89.1 °F 90.3 °F 64.0 °F 43% 29.99 in 10.0 mi NNE 8.1 mph - N/A   Mostly Cloudy
3:53 PM 91.0 °F 93.8 °F 66.0 °F 44% 29.97 in 10.0 mi East 4.6 mph - N/A   Mostly Cloudy
4:53 PM 91.9 °F 93.3 °F 64.0 °F 39% 29.96 in 10.0 mi North - - N/A   Scattered Clouds
5:53 PM 91.0 °F 91.5 °F 62.1 °F 38% 29.96 in 10.0 mi NNE 4.6 mph - N/A   Clear
6:53 PM 88.0 °F 88.7 °F 63.0 °F 43% 29.96 in 10.0 mi Calm Calm - N/A   Clear
7:53 PM 77.0 °F - 68.0 °F 74% 29.97 in 10.0 mi Calm Calm - N/A   Clear
8:53 PM 75.0 °F - 69.1 °F 82% 29.98 in 10.0 mi Calm Calm - N/A   Clear
9:53 PM 75.0 °F - 68.0 °F 79% 29.99 in 10.0 mi Calm Calm - N/A   Clear
10:53 PM 71.1 °F - 68.0 °F 90% 29.99 in 10.0 mi Calm Calm - N/A   Clear
11:53 PM 71.1 °F - 66.9 °F 87% 29.98 in 10.0 mi Calm Calm - N/A   Clear